Flag for Germany Weather past 2 weeks in Erlangen, Bavaria, Germany

Now
41 °F

Scattered clouds.


Feels Like: 37 °F
Forecast: 31 / 45 °F
Wind: 6 mph from West

Location: Nuernberg

Current Time: Feb 28, 2015 at 1:27:46 PM

Latest Report: Feb 28, 2015 at 12:50 PM


Visibility: N/A

Pressure: 30.12 "Hg

Humidity: 66%

Dew point: 30 °F

Location of ErlangenLocation

Historic Weather in Erlangen — Graph

°F

Erlangen temperature yesterday

Maximum temperature yesterday: 48 °F (at 2:20 PM)
Minimum temperature yesterday: 25 °F (at 6:20 AM)
Average temperature yesterday: 37 °F

Past Weeks' High & Low Weather Summary

 TemperatureHumidityPressure
High52 °F (Feb 20, 2:20 PM)100% (Feb 14, 2:20 AM)30.72 "Hg (Feb 14, 2:20 AM)
Low21 °F (Feb 20, 6:20 AM)46% (Feb 26, 1:20 PM)29.47 "Hg (Feb 21, 1:20 PM)
Average33 °F87%30.02 "Hg
* Reported Feb 13 12:20 PM — Feb 28 12:20 PM, Erlangen, Weather by CustomWeather, © 2015

Note: Actual official high and low records may vary slightly from our data, if they occured in-between our weather recording intervals... More about our weather records

Advertising

Erlangen weather history for previous 24 hours

 ConditionsComfort  
Time TempWeatherWind HumidityBarometerVisibility
12:20 PM
Sat, Feb 28
41 °FScattered clouds.5 mph70%30.15 "HgN/A
11:50 AM39 °FScattered clouds.3 mph81%30.15 "HgN/A
11:20 AM37 °FScattered clouds.5 mph87%30.15 "HgN/A
10:50 AM37 °FPartly sunny.2 mph87%30.15 "HgN/A
10:20 AM36 °FPartly sunny.1 mph93%30.15 "HgN/A
9:50 AM36 °FBroken clouds.1 mph93%30.15 "HgN/A
9:20 AM36 °FBroken clouds.2 mph93%30.15 "HgN/A
8:50 AM36 °FBroken clouds.2 mph93%30.15 "Hg4 mi
8:20 AM36 °FPartly sunny.3 mph93%30.15 "Hg4 mi
7:50 AM36 °FDrizzle. Broken clouds.5 mph93%30.15 "Hg3 mi
7:20 AM36 °FLight rain. Broken clouds.3 mph93%30.12 "Hg6 mi
6:50 AM36 °FPassing clouds.6 mph93%30.12 "Hg6 mi
6:20 AM36 °FPassing clouds.5 mph93%30.12 "Hg5 mi
5:50 AM36 °FLow clouds.3 mph93%30.09 "Hg5 mi
5:20 AM36 °FLight rain. Low clouds.5 mph93%30.09 "Hg5 mi
4:50 AM34 °FLow clouds.5 mph100%30.09 "Hg5 mi
4:20 AM36 °FLow clouds.5 mph93%30.09 "Hg6 mi
3:50 AM34 °FLow clouds.3 mph100%30.09 "Hg6 mi
3:20 AM36 °FLow clouds.5 mph93%30.09 "HgN/A
2:50 AM36 °FLow clouds.3 mph93%30.09 "HgN/A
2:20 AM36 °FLow clouds.7 mph93%30.09 "Hg6 mi
1:50 AM36 °FDrizzle. Low clouds.6 mph93%30.07 "Hg5 mi
1:20 AM36 °FDrizzle. Low clouds.8 mph93%30.07 "Hg5 mi
12:50 AM36 °FPassing clouds.7 mph93%30.07 "Hg4 mi
12:20 AM36 °FPartly cloudy.8 mph100%30.07 "Hg4 mi
11:50 PM
Fri, Feb 27
37 °FPartly cloudy.7 mph93%30.07 "Hg4 mi
11:20 PM37 °FDrizzle. Low clouds.8 mph93%30.07 "Hg4 mi
10:50 PM37 °FDrizzle. Low clouds.7 mph93%30.04 "Hg4 mi
10:20 PM37 °FPassing clouds.7 mph93%30.04 "Hg6 mi
9:50 PM37 °FLight rain. Partly cloudy.7 mph93%30.04 "HgN/A
9:20 PM37 °FLight rain. Partly cloudy.8 mph87%30.01 "HgN/A
8:50 PM39 °FPartly cloudy.7 mph81%30.01 "HgN/A
8:20 PM39 °FPartly cloudy.7 mph75%30.01 "HgN/A
7:50 PM39 °FPassing clouds.8 mph75%29.98 "HgN/A
7:20 PM39 °FPassing clouds.8 mph75%29.98 "HgN/A
6:50 PM41 °FPassing clouds.7 mph70%29.95 "HgN/A
6:20 PM41 °FPassing clouds.7 mph66%29.95 "HgN/A
5:50 PM43 °FPartly sunny.6 mph61%29.92 "HgN/A
5:20 PM43 °FPartly sunny.7 mph61%29.92 "HgN/A
4:50 PM45 °FPartly sunny.6 mph61%29.89 "HgN/A
4:20 PM45 °FBroken clouds.6 mph61%29.89 "HgN/A
3:50 PM46 °FPassing clouds.7 mph57%29.86 "HgN/A
3:20 PM46 °FPassing clouds.3 mph53%29.86 "HgN/A
2:50 PM46 °FPassing clouds.6 mph53%29.86 "HgN/A
2:20 PM48 °FPassing clouds.5 mph50%29.83 "HgN/A
1:50 PM46 °FSunny.5 mph50%29.83 "Hg10 mi
1:20 PM45 °FPassing clouds.7 mph53%29.83 "HgN/A
Weather by CustomWeather, © 2015

See weather overviewHow to use our weather pages